Lapse_Rate
6.4 6.3 6.2 5.8 5.7 5.8 5.8 5.7 5.7 5.6 5.5 5.5 5.5 5.4 5.4 5.6 5.8 5.9 5.9 5.9 5.9 5.7
6.5 6.3 6.1 5.8 5.7 5.7 5.8 5.8 5.8 5.7 5.7 5.7 5.6 5.5 5.6 5.7 5.8 5.8 5.8 5.7 5.5 5.4
6.4 6.3 6.0 5.8 5.7 5.7 5.8 5.8 5.9 5.8 5.8 5.7 5.5 5.5 5.6 5.6 5.8 5.8 5.5 5.3 5.2 5.1
6.5 6.2 6.0 5.9 5.8 5.8 5.7 5.9 6.0 6.0 5.8 5.6 5.6 5.5 5.4 5.7 5.7 5.4 5.2 5.0 4.9 4.8
6.4 6.3 6.3 6.1 5.9 5.7 5.7 6.0 6.1 5.8 5.8 5.7 5.5 5.4 5.7 5.6 5.4 5.2 4.9 4.9 4.9 5.0
6.4 6.4 6.2 6.0 5.6 5.7 6.0 6.1 5.9 5.9 5.8 5.6 5.5 5.5 5.5 5.4 5.1 4.9 4.8 4.9 4.9 4.8
6.3 6.2 6.0 5.9 5.9 6.1 6.1 6.0 5.9 5.8 5.7 5.5 5.5 5.4 5.3 5.1 4.9 4.9 4.8 4.7 4.7 4.6
6.1 6.0 6.0 6.1 6.1 6.1 6.1 6.0 5.8 5.7 5.5 5.5 5.4 5.3 5.0 5.0 5.0 4.9 4.7 4.6 4.5 4.4
5.9 6.0 6.2 6.1 6.1 6.1 6.1 5.8 5.6 5.5 5.5 5.3 5.2 5.0 5.0 4.9 4.8 4.7 4.6 4.5 4.4 4.1
6.0 6.2 6.1 6.2 6.2 6.1 5.8 5.6 5.5 5.5 5.3 5.1 5.1 4.9 4.8 4.8 4.8 4.5 4.5 4.4 4.1 3.9
5.9 6.0 6.2 6.3 6.0 5.8 5.6 5.6 5.5 5.2 5.1 5.0 4.9 4.8 4.8 4.6 4.5 4.5 4.3 4.0 3.8 3.6
6.1 6.3 6.1 6.0 5.8 5.6 5.6 5.4 5.3 5.1 5.0 4.9 4.7 4.7 4.6 4.6 4.5 4.2 3.9 3.8 3.6 3.4
6.0 5.9 5.9 5.8 5.7 5.6 5.4 5.3 5.0 4.9 4.8 4.8 4.7 4.6 4.7 4.4 4.1 3.9 3.9 3.7 3.4 3.1
5.9 5.9 5.8 5.6 5.5 5.4 5.2 5.1 4.9 4.8 4.6 4.5 4.6 4.4 4.1 3.9 3.9 3.8 3.7 3.3 3.1 3.2
Wind_Speed
14 10 10 11 9 8 8 7 8 7 8 7 6 5 4 3 2 1 1 2 3 4
11 13 11 12 10 8 9 7 7 8 6 6 6 4 3 2 2 2 2 3 4 4
13 13 12 11 11 11 10 9 8 7 6 5 4 3 2 2 2 3 3 4 5 6
13 13 12 11 10 10 10 9 8 7 6 4 3 2 2 2 2 4 5 5 5 7
14 13 13 11 10 10 10 8 8 6 5 4 3 2 2 3 4 5 6 6 7 9
13 13 13 12 10 9 9 8 7 6 4 3 3 2 2 4 5 4 4 5 8 9
12 12 12 11 10 9 8 8 6 5 4 3 3 3 4 5 5 4 4 6 8 9
11 11 12 11 10 9 8 7 6 4 3 3 3 3 7 6 5 5 6 8 9 9
11 11 10 10 10 9 7 6 5 4 3 4 4 9 10 10 7 6 7 10 10 10
11 11 10 10 9 8 6 5 4 3 4 4 5 9 12 13 7 6 8 11 11 11
11 11 9 9 8 6 4 4 3 3 3 4 4 11 13 14 8 8 10 11 12 12
10 10 9 8 7 4 3 3 3 2 4 6 6 12 13 13 8 9 11 11 12 10
9 9 9 7 6 3 3 2 2 4 4 6 6 11 14 13 7 10 10 11 10 13
9 9 8 6 3 3 3 3 3 4 5 5 6 8 14 15 9 9 9 10 10 10
Wind_Direction
143 142 142 148 148 139 132 130 130 122 117 110 100 89 70 55 39 30 334 290 277 291
136 135 139 139 134 131 126 126 125 126 115 102 91 75 57 32 5 351 330 311 304 290
133 127 131 133 131 129 124 124 126 118 109 99 86 65 35 13 358 340 333 317 303 301
127 128 129 129 128 125 124 125 118 116 108 96 77 45 25 357 335 322 314 317 322 316
126 128 126 127 127 128 121 114 115 110 102 89 63 34 358 328 314 315 325 334 333 325
129 129 128 127 126 122 119 113 108 104 93 69 28 358 315 295 305 310 320 331 328 321
133 130 127 124 122 120 116 112 107 92 81 49 355 322 306 300 303 305 313 325 319 311
126 123 121 119 118 114 106 102 98 92 62 13 339 326 320 316 319 312 312 314 308 304
125 123 120 120 116 109 105 98 90 69 35 4 339 323 329 331 327 314 307 308 307 302
126 122 120 119 115 110 102 103 80 39 18 351 326 329 334 331 324 311 307 307 307 305
123 121 121 116 112 108 99 86 55 30 352 330 334 336 332 326 321 310 305 300 300 297
128 124 122 115 108 101 99 67 36 339 350 343 325 333 330 328 320 310 306 303 294 292
124 121 115 113 111 93 76 46 9 358 348 319 327 330 332 329 316 318 315 309 308 306
108 109 114 111 92 89 69 29 4 337 338 334 330 324 328 330 327 317 313 320 320 319